Weather History for McCook, NE

Change the Weather History Date:

Monday, February 24, 2014

  Actual Average Record
Temperature  
Mean Temperature 27 °F 33 °F  
Max Temperature 40 °F 47 °F 78 °F (1958)
Min Temperature 13 °F 19 °F -11 °F (1960)
Degree Days  
Heating Degree Days 38    
Moisture  
Dew Point 17 °F    
Average Humidity 73    
Maximum Humidity 88    
Minimum Humidity 53    
Precipitation  
Precipitation 0.00 in 0.03 in 0.61 in (1977)
Month to date precipitation 0.16 0.51  
Year to date precipitation 0.36 1.02  
Sea Level Pressure  
Sea Level Pressure 30.24 in    
Wind  
Wind Speed 11 mph (ESE)    
Max Wind Speed 28 mph    
Max Gust Speed 36 mph    
Visibility 10 miles    
Events      
T = Trace of Precipitation, MM = Missing Value Source: NWS Daily Summary

Daily Weather History Graph

Daily Weather History Graph

Search for Another Location

Airport:

Trip Planner

Search our weather history database for the weather conditions in past years. The results will help you decide how hot, cold, wet, or windy it might be!

Date:

Astronomy

Feb. 24, 2014 Rise Set
Actual Time 7:23 AM CST 6:28 PM CST
Civil Twilight 6:55 AM CST 6:55 PM CST
Nautical Twilight 6:24 AM CST 7:27 PM CST
Astronomical Twilight 5:52 AM CST 7:58 PM CST
Moon 3:23 AM CST (2/24) 1:31 PM CST (2/24)
Length of Visible Light 12h 00m
Length of Day
11h 05m
Waning Crescent, 28% of the Moon is Illuminated
Feb 24
Waning Crescent
Mar 1
New
Mar 8
First Quarter
Mar 16
Full
Mar 23
Last Quarter

Hourly Weather History & Observations

Time (CST) Temp. Windchill Dew Point Humidity Pressure Visibility Wind Dir Wind Speed Gust Speed Precip Events Conditions
12:53 AM 19.0 °F 11.1 °F 16.0 °F 88% 30.35 in 10.0 mi East 5.8 mph - N/A   Overcast
1:53 AM 19.0 °F 11.1 °F 16.0 °F 88% 30.33 in 10.0 mi ESE 5.8 mph - N/A   Overcast
2:53 AM 19.9 °F 11.1 °F 15.1 °F 81% 30.30 in 10.0 mi SE 6.9 mph - N/A   Overcast
3:53 AM 19.9 °F 11.1 °F 15.1 °F 81% 30.28 in 10.0 mi ESE 6.9 mph - N/A   Overcast
4:53 AM 19.9 °F 13.4 °F 15.1 °F 81% 30.28 in 10.0 mi East 4.6 mph - N/A   Overcast
5:53 AM 19.9 °F 12.1 °F 15.1 °F 81% 30.27 in 10.0 mi SE 5.8 mph - N/A   Overcast
6:18 AM 21.0 °F 11.4 °F 15.1 °F 78% 30.15 in 10.0 mi SSE 8.1 mph - N/A   Overcast
6:29 AM 21.0 °F 9.9 °F 15.1 °F 78% 30.15 in 10.0 mi SSE 10.4 mph - N/A   Overcast
6:53 AM 21.0 °F 9.9 °F 15.1 °F 78% 30.25 in 10.0 mi SSE 10.4 mph - N/A   Overcast
7:53 AM 21.0 °F 9.9 °F 15.1 °F 78% 30.25 in 10.0 mi SSE 10.4 mph - N/A   Overcast
8:53 AM 21.9 °F 8.7 °F 15.1 °F 75% 30.25 in 10.0 mi SSE 15.0 mph - N/A   Overcast
9:36 AM 23.0 °F 11.1 °F 15.1 °F 72% 30.13 in 10.0 mi South 12.7 mph - N/A   Overcast
9:53 AM 23.0 °F 9.2 °F 15.1 °F 72% 30.23 in 10.0 mi SSE 17.3 mph 23.0 mph N/A   Overcast
10:49 AM 24.8 °F 12.4 °F 15.8 °F 69% 30.11 in 10.0 mi South 15.0 mph - N/A   Overcast
10:53 AM 24.1 °F 12.0 °F 15.1 °F 69% 30.23 in 10.0 mi South 13.8 mph - N/A   Overcast
11:44 AM 27.0 °F 15.6 °F 16.0 °F 63% 30.10 in 10.0 mi SSE 13.8 mph - N/A   Scattered Clouds
11:53 AM 27.0 °F 15.2 °F 16.0 °F 63% 30.19 in 10.0 mi SSE 15.0 mph - N/A   Partly Cloudy
12:53 PM 30.0 °F 18.7 °F 18.0 °F 61% 30.15 in 10.0 mi South 16.1 mph - N/A   Clear
1:53 PM 33.1 °F 23.0 °F 21.0 °F 61% 30.10 in 10.0 mi South 15.0 mph - N/A   Clear
2:53 PM 35.1 °F 25.9 °F 21.9 °F 59% 30.06 in 10.0 mi South 13.8 mph - N/A   Clear
3:53 PM 37.9 °F - 21.9 °F 53% 30.09 in 10.0 mi Calm Calm - N/A   Clear
4:53 PM 35.1 °F 24.8 °F 24.1 °F 64% 30.14 in 10.0 mi North 17.3 mph - N/A   Clear
5:53 PM 28.0 °F 15.7 °F 21.0 °F 75% 30.21 in 10.0 mi NNE 17.3 mph - N/A   Clear
6:53 PM 28.0 °F 17.5 °F 21.0 °F 75% 30.27 in 10.0 mi North 12.7 mph - N/A   Scattered Clouds
7:03 PM 30.0 °F 17.9 °F 21.9 °F 72% 30.19 in 10.0 mi North 18.4 mph - N/A   Mostly Cloudy
7:53 PM 28.9 °F 16.1 °F 21.9 °F 75% 30.32 in 10.0 mi North 19.6 mph - N/A   Overcast
8:39 PM 28.9 °F 19.2 °F 23.0 °F 78% 30.25 in 10.0 mi North 11.5 mph - N/A   Overcast
8:48 PM 28.4 °F 17.5 °F 21.2 °F 74% 30.25 in 10.0 mi North 13.8 mph - N/A   Overcast
8:53 PM 28.0 °F 12.8 °F 21.0 °F 75% 30.35 in 10.0 mi North 27.6 mph 35.7 mph N/A   Overcast
9:53 PM 21.0 °F 4.3 °F 12.9 °F 71% 30.41 in 10.0 mi North 24.2 mph - N/A   Overcast
10:27 PM 18.0 °F 1.3 °F 10.0 °F 71% 30.33 in 10.0 mi North 20.7 mph 27.6 mph N/A   Scattered Clouds
10:53 PM 16.0 °F -1.3 °F 8.1 °F 71% 30.47 in 10.0 mi North 20.7 mph - N/A   Clear
11:53 PM 12.9 °F -3.9 °F 6.1 °F 74% 30.50 in 10.0 mi NNW 17.3 mph - N/A   Clear